Theta_e
307 307 307 307 307 307 307 307 307 307 306 305 306 307 307 307 308 304 297 298 294 291 293 295 296 292 293 290 287 291 288 286 286 283 284 284 282 284 285 288 287 286 285 284 284 284 280 295 296 292 295 299 301 302
306 306 306 306 307 306 306 306 306 306 306 305 306 306 306 307 307 306 297 298 299 294 294 299 300 301 300 299 293 294 289 290 288 287 286 287 285 286 286 281 291 285 288 285 285 285 292 297 297 300 302 300 302 303
306 306 306 306 306 305 305 305 305 306 306 305 305 305 306 307 307 306 300 300 296 291 292 293 294 300 303 302 303 293 288 290 289 294 286 289 286 289 284 283 288 291 295 290 290 292 295 298 300 302 303 302 303 304
305 305 305 304 303 304 304 304 304 305 305 304 304 305 306 306 307 306 300 300 295 295 290 291 301 298 304 302 302 299 294 294 295 295 290 289 287 293 287 289 289 288 291 289 291 294 295 298 300 302 302 304 303 304
304 303 303 302 301 302 302 303 303 304 304 304 305 306 307 306 306 305 301 301 298 294 290 291 298 300 300 302 302 299 295 295 294 291 291 290 295 294 293 289 289 292 292 289 287 293 293 295 299 302 301 302 303 303
301 301 301 301 301 302 302 302 302 302 301 303 304 305 305 306 306 300 295 301 301 299 294 289 294 296 299 302 301 299 297 297 295 294 294 296 300 293 287 285 291 294 297 298 295 298 298 299 301 302 302 303 304 304
300 300 300 300 301 301 301 301 301 302 302 303 304 304 305 305 303 295 294 300 305 304 296 289 288 297 300 300 301 296 298 296 297 297 294 292 292 292 286 285 292 295 298 298 300 298 297 299 298 302 304 305 305 308
299 299 299 299 299 299 300 300 301 302 303 304 304 305 305 305 303 298 300 304 304 301 297 288 287 291 299 294 293 299 295 297 295 293 293 292 291 290 284 290 293 296 296 297 299 301 301 302 304 304 304 305 305 305
297 298 298 298 298 299 299 299 300 302 303 303 304 305 301 298 298 303 309 307 305 300 292 291 282 281 301 297 297 293 293 287 297 292 292 293 287 282 289 291 294 295 293 295 299 301 302 302 302 303 302 303 303 304
297 297 297 298 298 298 299 299 300 301 302 304 302 298 298 300 308 307 301 298 297 297 297 292 291 287 294 294 294 290 290 288 286 291 295 289 286 293 295 296 296 297 297 297 294 296 298 298 301 301 300 301 303 303
296 296 297 297 297 298 299 300 300 301 303 295 292 294 298 304 300 298 294 290 291 290 292 290 291 287 296 291 291 291 287 288 282 288 292 288 285 293 296 298 300 299 298 298 299 301 299 300 298 298 299 301 301 302
296 296 296 297 297 298 299 301 302 299 296 295 296 299 297 294 293 291 289 292 292 289 291 290 291 292 295 296 288 289 285 288 283 294 290 286 291 295 296 300 299 299 299 299 300 301 302 302 301 299 299 299 299 301
295 295 296 297 298 299 301 302 302 302 300 300 296 293 291 291 285 286 281 288 291 294 295 295 293 296 294 295 290 286 282 281 289 281 283 287 294 296 296 299 299 301 300 301 301 302 303 304 302 299 298 299 299 299
295 296 296 297 299 301 300 299 300 298 296 293 291 285 286 283 287 287 287 289 296 298 298 294 295 292 293 290 292 285 288 287 280 276 280 290 295 298 300 300 299 299 300 301 303 302 300 300 300 300 298 299 298 298
295 296 297 299 298 298 298 298 299 293 292 290 291 284 286 290 292 293 295 295 298 300 297 293 292 292 289 290 291 287 284 278 277 276 284 293 297 299 299 298 298 299 298 300 301 300 300 300 300 299 299 298 298 298
295 295 297 299 298 298 297 297 295 294 293 291 290 287 289 289 290 292 293 296 301 300 300 294 289 288 288 287 285 285 280 279 280 284 292 296 298 299 298 298 298 299 298 298 300 301 301 300 299 298 299 298 298 297
295 291 296 298 298 298 298 292 293 292 289 290 288 291 290 290 290 292 293 294 300 298 294 296 289 287 289 284 282 285 283 284 288 291 296 299 299 301 300 300 300 300 298 299 300 301 300 300 298 298 296 297 297 297
290 292 296 297 297 294 293 296 292 291 287 289 286 287 288 289 289 291 294 296 297 297 296 293 296 289 284 283 281 288 290 293 295 296 297 299 300 301 301 299 300 300 298 299 302 302 301 297 296 295 296 296 295 296
292 293 296 297 296 292 287 290 293 285 287 288 289 290 290 292 295 296 296 297 298 300 298 294 292 287 287 290 291 293 295 297 295 296 298 299 298 301 302 301 300 299 298 300 300 301 300 298 297 295 295 294 292 293
296 297 297 297 297 289 288 287 292 288 286 287 288 288 288 289 293 293 295 295 295 296 295 294 291 291 292 293 295 296 297 299 297 296 297 298 299 299 299 299 298 298 296 297 299 297 298 298 297 296 295 293 293 292
293 293 296 294 291 290 288 286 285 288 289 287 289 287 286 289 289 290 290 293 290 291 292 295 295 296 297 296 297 297 297 298 297 299 297 296 299 301 301 300 299 297 298 297 297 298 299 298 296 295 295 293 293 292
290 295 290 291 287 288 286 288 286 287 285 285 286 285 282 282 283 285 288 287 288 290 293 295 297 298 299 297 298 298 299 300 299 299 297 297 298 298 299 298 297 298 296 297 297 297 298 299 298 297 295 294 293 293
294 292 289 289 285 282 282 289 285 286 283 285 286 284 284 284 286 289 286 288 290 294 297 296 297 300 299 301 302 300 300 299 299 299 299 301 301 301 299 299 299 298 297 296 299 297 295 295 294 296 295 294 293 291
295 288 285 283 282 277 286 284 286 285 285 282 282 281 283 284 288 285 284 285 292 295 295 296 297 298 299 298 297 299 301 299 297 297 300 300 299 299 300 301 302 300 299 298 298 296 297 298 295 297 296 294 292 290
280 275 282 273 282 282 281 282 282 281 281 282 282 282 282 285 280 282 283 288 291 292 294 296 296 295 295 297 297 296 298 298 295 294 297 299 300 299 299 302 301 302 300 300 298 297 296 297 295 295 295 293 291 290
272 279 275 280 280 280 280 279 280 279 280 281 283 286 285 282 282 282 286 289 289 290 291 294 294 293 294 296 297 298 297 298 298 297 297 300 301 300 299 298 297 298 299 302 300 298 297 296 294 294 293 291 288 290
272 273 279 284 280 280 279 281 281 279 280 280 281 281 281 281 281 285 289 291 291 292 294 296 296 294 294 297 298 300 302 299 299 299 301 302 299 302 302 300 299 300 301 301 301 300 297 296 294 293 292 292 292 290
280 281 277 279 279 280 278 279 279 279 280 284 284 281 279 281 283 287 288 293 295 295 295 295 294 295 295 296 294 295 296 299 301 301 301 300 301 302 301 302 303 291 300 302 301 300 299 297 295 294 293 291 290 290
280 283 282 279 280 280 280 279 280 282 285 285 280 281 285 288 287 286 288 290 291 291 290 289 289 292 293 294 295 293 292 293 294 293 292 292 294 296 300 300 301 298 296 296 288 295 298 297 297 295 293 292 291 290
281 284 281 281 279 278 282 284 283 285 286 286 287 286 288 286 285 287 286 286 286 286 287 289 289 289 288 289 289 291 291 291 291 291 291 291 293 298 300 301 301 299 296 295 294 291 288 292 291 293 292 291 289 287
284 284 282 282 281 283 285 287 287 288 287 286 287 285 284 284 286 285 284 285 285 286 285 286 287 287 287 287 288 287 287 290 290 290 291 294 295 297 299 299 302 301 296 294 294 295 293 293 292 291 289 287 287 287
283 283 283 281 282 285 288 285 284 285 285 285 285 286 287 283 280 282 284 284 284 283 284 286 285 286 289 290 290 290 287 288 287 287 288 289 292 296 297 298 300 299 296 295 293 293 292 291 289 289 288 287 286 286
283 285 286 285 284 282 284 283 282 283 283 283 283 282 281 279 276 281 285 286 284 284 285 287 288 288 288 288 289 289 289 290 288 286 285 285 285 286 293 295 295 295 295 294 294 292 291 290 289 288 285 284 283 282
Wind_Speed
17 17 17 17 17 16 17 17 17 17 16 18 17 16 16 15 13 3 4 4 4 5 13 15 12 8 8 4 3 6 6 5 5 7 4 4 3 3 5 4 7 4 4 3 4 3 5 15 2 7 7 12 15 17
17 17 16 16 15 15 15 16 17 18 16 17 17 17 17 16 14 6 3 3 2 5 9 8 16 23 22 28 4 2 3 2 2 3 2 3 3 3 4 4 5 3 4 4 3 2 5 7 11 10 8 16 12 12
18 17 16 15 14 14 15 16 18 19 17 15 17 18 17 16 15 9 3 2 1 4 7 4 7 7 5 14 12 3 2 4 1 0 2 3 5 2 2 1 3 4 1 3 3 4 7 6 12 10 13 16 17 17
16 16 15 15 16 17 17 17 18 18 18 18 19 18 17 17 14 12 5 3 2 4 5 8 4 10 5 8 14 7 6 3 3 1 3 3 4 3 3 3 1 4 4 5 3 5 9 3 3 6 15 14 19 19
13 14 16 17 19 19 19 18 19 19 19 20 20 20 16 15 14 10 8 8 9 3 4 7 13 7 5 9 13 8 7 5 2 2 3 3 3 2 1 2 2 2 3 3 4 7 4 10 14 7 13 16 19 21
16 17 18 19 19 19 18 18 20 21 22 21 22 21 19 17 13 3 4 2 7 7 4 5 5 6 2 10 12 11 7 3 3 3 4 3 5 2 1 3 4 3 3 2 4 9 10 11 10 5 8 16 21 19
17 17 18 19 20 19 19 20 22 22 23 22 22 21 18 15 4 4 4 1 2 2 3 5 5 6 4 6 3 3 4 3 3 3 3 3 3 3 2 1 7 8 5 6 7 5 6 7 10 16 12 9 15 10
16 17 19 19 19 20 20 21 22 24 23 23 24 22 20 17 10 7 8 18 7 3 2 3 6 6 3 4 3 5 4 3 4 4 3 3 3 2 1 5 4 4 6 7 7 5 6 8 8 8 9 11 12 13
16 18 20 20 20 20 20 21 22 24 26 27 27 24 1 2 3 2 2 5 2 3 3 3 2 5 3 2 2 3 3 2 3 4 4 3 1 1 6 4 5 3 2 5 8 6 8 10 9 9 8 12 12 14
16 18 19 20 21 21 21 21 22 25 27 30 3 1 2 1 3 1 2 1 1 2 3 5 3 5 3 2 4 3 1 3 1 5 1 2 3 4 6 7 6 4 5 5 5 9 7 9 9 8 9 9 10 10
16 18 19 19 20 21 21 21 21 21 11 5 5 3 4 12 1 3 3 3 3 4 4 5 8 4 3 4 4 2 2 2 0 3 2 2 2 4 5 7 6 4 4 5 3 2 4 5 6 5 6 8 8 9
16 17 19 20 20 19 20 20 14 6 2 4 6 5 3 2 3 3 4 4 5 5 5 5 6 6 4 3 3 2 1 3 3 1 3 3 4 5 5 5 6 7 6 4 5 6 6 6 5 6 6 9 9 11
17 18 19 20 20 19 17 13 13 14 11 2 2 3 2 2 2 5 5 5 4 4 4 4 3 5 1 3 2 3 2 5 3 4 3 4 2 1 2 6 5 6 6 5 3 3 3 6 5 4 6 6 7 9
18 19 21 21 19 9 13 15 16 11 4 3 3 4 5 5 6 6 5 4 5 2 6 3 2 4 2 3 3 2 4 3 4 3 4 3 3 5 4 5 6 7 8 7 5 3 2 4 4 3 6 6 7 11
19 21 21 7 11 15 17 18 16 2 2 4 4 6 8 7 5 4 6 6 6 4 3 2 2 4 1 3 2 1 1 3 5 6 4 4 9 11 4 2 7 7 7 6 5 5 5 3 4 6 5 6 8 12
18 19 3 11 15 19 21 13 4 3 3 4 6 5 5 3 4 2 3 5 3 3 6 2 3 3 4 4 3 5 5 6 6 5 3 5 8 8 5 4 5 6 7 7 6 5 3 5 5 5 6 6 7 10
14 3 17 20 21 22 22 3 3 6 5 5 6 5 7 8 9 9 4 5 2 3 3 2 5 7 2 3 2 4 6 5 5 4 3 6 6 5 8 5 4 5 6 7 6 6 4 4 5 7 9 6 7 8
5 7 18 22 17 9 3 4 4 5 8 7 4 5 3 4 6 6 5 7 3 4 4 5 2 2 4 5 4 5 4 3 4 4 4 6 8 9 7 6 6 6 5 6 7 7 5 5 6 4 7 6 8 8
9 10 18 24 13 4 3 4 3 5 6 4 4 4 4 7 8 10 8 10 7 4 4 2 4 3 5 4 4 3 4 4 3 3 3 4 2 6 6 6 7 6 6 9 8 6 4 6 5 4 4 4 5 4
19 19 19 21 11 3 5 5 3 4 5 5 3 6 4 5 6 4 7 5 2 2 2 4 4 4 5 4 5 5 5 5 4 4 4 4 5 3 4 6 5 7 5 5 4 6 5 4 4 5 4 4 6 5
7 2 4 5 2 4 4 4 5 5 4 4 3 3 5 4 4 3 4 2 1 3 3 5 4 6 7 6 5 5 5 5 5 6 7 5 4 7 5 6 7 3 5 5 5 6 7 5 4 4 4 4 4 5
5 6 2 4 4 4 5 5 5 5 3 4 6 5 4 4 4 4 3 2 3 5 4 5 6 7 7 6 8 6 6 8 6 2 3 6 5 4 4 4 5 5 5 6 5 6 5 7 7 5 6 6 6 5
8 2 3 4 4 4 7 3 4 4 4 4 3 4 4 4 5 3 3 3 4 4 9 8 9 11 12 9 4 3 5 7 5 7 7 7 6 5 4 5 5 6 5 5 6 6 5 10 8 8 7 6 7 6
2 2 3 4 6 5 4 4 4 3 3 4 4 6 7 6 4 3 4 3 5 9 11 15 11 10 6 2 3 3 4 4 5 4 8 9 7 6 6 5 4 4 4 8 8 6 8 10 10 9 8 8 7 7
2 6 3 6 4 5 5 4 4 3 6 9 9 8 5 3 2 3 6 5 7 9 10 11 8 8 7 5 3 3 5 3 1 5 5 6 6 5 4 4 5 5 6 8 7 8 8 10 8 8 9 9 9 8
3 5 6 5 4 1 5 7 6 5 5 5 4 4 3 2 2 4 4 6 7 7 9 9 8 9 11 10 9 8 6 2 4 4 1 7 10 10 8 8 5 4 6 10 10 10 12 11 10 11 10 10 10 10
5 6 5 4 3 3 4 3 4 4 5 4 3 4 3 4 4 2 1 4 3 5 8 8 8 8 9 9 10 11 12 8 4 3 3 4 3 6 10 11 10 6 6 9 12 14 15 13 11 11 10 8 10 10
6 4 5 6 5 3 6 3 2 3 5 1 3 3 2 2 2 4 2 8 2 2 5 8 9 7 6 8 8 9 10 12 8 7 6 7 7 7 6 3 0 8 5 9 11 12 13 13 13 13 12 11 8 8
5 4 4 10 8 4 6 5 5 5 3 1 1 1 2 3 4 4 5 8 7 7 7 7 9 9 8 8 7 8 8 11 13 13 10 5 5 5 4 5 5 5 4 8 6 12 15 13 14 14 14 11 9 9
5 3 4 3 4 5 5 5 4 4 3 4 4 3 5 3 4 6 7 9 9 8 8 7 6 7 7 7 7 9 8 8 8 7 5 4 6 7 5 4 4 4 5 5 6 7 12 13 13 12 12 10 8 9
3 2 4 5 5 6 9 7 5 4 3 3 4 3 5 5 3 6 10 8 7 6 7 6 6 6 6 7 8 7 8 8 11 11 10 5 5 5 6 4 2 2 2 5 10 11 13 13 13 14 14 13 12 11
3 5 2 3 4 5 5 3 2 3 3 3 3 4 3 4 4 4 7 9 8 8 8 8 8 7 8 7 7 5 4 6 8 9 12 8 8 8 8 7 7 3 6 3 5 10 14 14 12 12 12 14 13 13
5 5 3 3 2 4 1 1 2 2 4 5 6 6 4 4 5 4 4 8 7 6 6 6 6 7 10 11 10 7 8 7 11 12 14 14 14 11 8 9 11 12 13 10 8 8 10 14 13 14 15 15 14 13
Wind_Direction
296 297 298 297 298 301 303 303 306 307 310 315 314 315 313 313 312 293 251 218 183 254 277 261 264 260 276 247 277 324 339 0 339 14 355 332 306 316 308 299 331 350 301 306 307 337 333 346 334 57 15 326 305 298
295 296 299 300 301 303 305 305 305 304 305 308 310 310 309 309 305 293 247 215 214 243 266 305 270 255 244 248 244 234 196 260 276 321 332 300 297 307 304 323 338 5 357 319 339 303 273 357 343 356 335 317 307 292
301 305 305 303 307 311 309 307 303 302 302 310 310 307 303 305 303 296 246 262 254 256 275 253 254 257 194 218 183 172 253 201 306 127 278 282 276 234 307 304 282 290 250 303 290 274 285 37 0 345 338 313 324 336
305 309 315 319 316 312 312 311 310 307 311 313 309 306 303 302 303 299 262 245 217 271 278 279 285 273 280 143 180 173 144 132 173 221 246 265 272 210 256 271 274 240 329 306 273 307 321 293 291 3 302 314 351 334
320 319 317 314 314 314 312 314 312 308 312 312 310 308 307 305 299 291 262 240 202 229 283 293 303 264 218 165 160 144 131 129 183 245 225 247 264 258 279 293 296 328 325 355 288 302 276 302 327 311 355 335 331 328
311 312 312 312 313 311 314 316 313 310 310 309 307 308 306 303 310 301 300 158 191 191 286 300 288 289 4 162 167 171 159 140 180 221 253 263 239 180 71 292 291 267 283 250 284 317 304 295 297 329 3 330 315 313
320 319 316 315 316 317 317 316 312 311 309 306 303 299 295 292 272 213 233 215 40 265 257 294 292 271 189 166 172 129 172 186 195 238 224 238 274 96 95 7 283 318 276 300 306 338 327 321 317 322 354 295 286 333
322 320 316 317 318 318 317 315 315 317 314 306 300 296 290 280 265 255 246 248 228 206 265 264 273 321 189 177 228 164 171 170 217 221 277 234 335 63 344 256 276 313 326 326 329 286 258 281 336 354 349 1 355 10
324 320 321 322 323 323 322 319 317 316 310 307 302 300 332 105 196 280 14 106 126 165 234 238 214 267 333 323 281 338 131 174 203 201 228 115 319 193 247 275 277 264 252 289 326 340 16 15 357 352 4 12 13 13
323 320 322 324 325 324 323 323 320 316 314 308 317 183 128 68 272 252 5 159 169 225 252 244 237 258 36 28 359 311 8 222 216 245 125 114 227 235 223 237 251 247 259 306 5 4 358 6 352 13 11 5 14 6
321 322 322 323 321 323 323 322 320 323 326 5 355 352 306 286 239 209 213 177 182 233 220 235 209 216 256 162 216 187 263 280 339 281 137 315 274 230 201 205 244 227 209 266 53 53 13 358 346 18 16 14 9 4
319 321 321 321 322 323 318 317 315 330 314 268 281 289 276 300 252 251 221 191 196 236 205 198 198 185 254 119 104 307 208 355 259 332 121 238 244 204 156 188 197 206 195 143 76 23 4 358 6 17 14 16 21 24
321 322 320 320 316 313 314 309 336 326 311 262 203 235 232 236 240 222 220 214 215 220 201 199 176 159 78 105 94 76 42 249 346 31 239 231 234 158 110 132 131 178 164 128 165 171 323 7 40 36 58 43 30 34
322 321 320 316 309 334 339 331 325 331 293 260 234 242 204 213 232 207 217 223 247 246 250 153 174 143 164 122 153 163 233 71 349 351 246 253 49 334 341 131 124 122 162 153 185 221 17 51 358 20 66 37 37 39
321 319 316 321 349 338 325 314 307 251 260 268 241 241 219 221 261 251 243 264 273 266 234 284 71 109 169 143 190 135 269 273 200 231 226 196 178 215 268 252 145 124 135 151 165 164 148 97 48 35 78 49 42 41
322 318 201 351 343 337 324 315 264 187 235 236 241 275 287 281 276 303 286 298 280 3 327 325 135 132 188 159 146 208 146 219 245 219 222 176 218 219 228 224 137 149 127 151 134 154 120 77 57 64 75 47 61 51
316 232 325 327 327 323 305 247 241 208 226 236 243 230 247 272 273 281 271 259 343 137 178 34 266 195 149 148 201 179 202 214 219 234 195 205 180 315 260 214 180 153 134 154 129 124 118 102 67 59 74 51 62 65
268 289 307 310 320 315 274 209 252 244 229 236 242 252 235 227 266 271 266 277 178 181 150 202 263 317 213 184 236 232 229 242 229 210 184 195 170 196 203 188 171 154 151 133 127 132 135 105 85 71 81 53 48 43
286 293 298 299 309 291 283 259 200 258 253 272 262 256 236 260 258 259 268 274 257 214 136 142 206 222 230 220 190 176 181 179 247 232 198 235 238 198 206 190 162 178 146 148 141 161 157 151 134 110 112 83 80 58
299 292 284 286 300 242 254 254 264 264 262 246 287 276 232 244 261 252 271 277 282 186 127 172 210 246 210 222 188 187 191 197 147 140 216 235 221 191 177 169 182 196 160 129 126 110 122 104 101 113 119 111 97 78
305 308 2 337 264 216 275 275 261 235 259 268 287 341 274 321 301 288 284 298 321 220 225 207 218 238 231 237 206 199 213 168 179 178 190 191 174 153 167 180 176 146 143 143 131 143 156 156 147 135 118 105 97 93
243 277 281 227 230 245 234 228 234 291 308 272 300 275 248 276 287 271 260 224 227 240 220 220 235 240 261 253 240 203 212 183 176 140 61 131 157 168 191 186 128 135 159 155 152 153 152 143 143 133 129 120 105 104
271 202 219 256 242 243 255 192 238 221 252 263 349 332 311 307 268 333 283 284 260 336 334 303 268 241 235 243 163 153 180 196 181 190 177 188 193 181 163 166 163 136 166 196 171 150 146 144 136 135 132 123 116 106
197 239 249 229 193 257 258 235 218 252 291 312 294 286 283 260 287 281 266 6 7 344 356 351 354 358 330 85 139 160 220 218 228 182 176 167 175 186 172 174 147 137 181 153 153 146 143 152 143 150 152 142 133 126
326 265 219 268 256 218 243 237 217 232 293 321 286 263 261 311 306 265 274 24 360 358 348 355 359 356 3 332 343 350 313 87 198 187 192 151 126 96 103 137 143 154 148 144 155 151 138 148 144 146 145 144 140 138
264 248 177 246 271 340 22 342 21 311 280 299 322 280 289 264 266 14 47 5 15 356 349 357 355 4 11 7 347 333 313 326 91 86 153 164 156 154 154 152 149 196 181 169 157 149 148 151 149 143 141 139 140 137
243 268 244 241 235 304 295 299 308 293 298 261 262 296 324 356 15 42 30 329 351 348 352 358 359 19 13 5 344 350 346 336 26 124 137 144 154 153 154 169 189 207 156 166 164 159 157 158 154 148 144 146 151 146
232 263 242 253 251 229 262 266 277 254 251 196 334 348 320 256 339 13 314 329 227 327 356 10 355 342 358 33 8 3 339 339 5 43 55 46 38 40 23 13 337 194 182 183 167 157 157 155 154 151 149 144 136 140
246 266 297 284 278 248 253 233 218 210 214 100 290 311 263 64 2 351 334 351 10 16 25 12 357 344 6 17 24 15 12 16 20 35 39 21 358 0 344 38 22 333 169 141 134 155 156 153 152 148 146 140 139 132
257 251 242 247 233 238 225 207 241 259 243 229 230 247 86 87 29 18 17 17 15 12 5 4 5 356 6 13 12 16 26 19 20 10 351 1 339 321 314 6 31 25 323 86 123 116 106 113 115 122 128 134 132 130
278 276 235 219 247 246 246 249 248 243 219 217 229 178 122 140 142 44 21 8 5 4 0 0 6 3 358 13 19 11 5 3 357 0 358 340 327 327 332 329 338 172 207 232 146 143 137 140 143 143 146 145 148 143
250 233 262 263 272 282 302 228 223 226 198 176 357 72 106 90 67 31 9 1 4 9 10 14 11 2 3 16 30 36 18 3 357 360 4 356 356 10 23 18 10 14 124 242 159 144 140 139 141 141 140 137 135 132
256 273 262 280 276 289 219 81 316 300 62 62 51 37 48 74 79 6 337 359 356 345 356 5 10 15 19 23 16 13 14 16 16 30 29 25 23 12 13 29 32 40 47 38 42 85 111 122 121 121 120 118 117 115